weather.gov     
National Weather Service

Regional Weather Roundup
NWS Homepage
This page is being discontinued on March 12, 2014.
The same data is available at this site. Please update your bookmarks.
Thank you, and we apologize for the inconvenience.
Please send an email to SR-SRH.Webmaster@noaa.gov with any concerns.


Current Version
Previous Version:    01  02  03  04  05  06  07  08  09  10  11  12  13  14  15  16  17  18  19  20  21  22  23  24  25  26  27  
[Printable]
838
ASUS42 KKEY 302010
RWRKEY

FLORIDA REGIONAL WEATHER ROUNDUP FOR THE FLORIDA KEYS
NATIONAL WEATHER SERVICE KEY WEST FLORIDA
400 PM EDT SAT AUG 30 2014

...SOUTH FLORIDA AND THE KEYS...

CITY           SKY/WX    TMP DP  RH WIND       PRES   REMARKS
FORT MYERS     MOSUNNY   94  73  50 S9        30.01F HX 103
SW REGIONAL AP LGT RAIN  92  74  55 SE6       30.02F HX 101
NAPLES         MOSUNNY   95  73  48 SE10      30.02F HX 104
MIAMI          PTSUNNY   91  74  57 E15       30.06F HX 100
WEST KENDALL   PTSUNNY   92  75  57 SE17      30.05F HX 103
HOMESTEAD      SUNNY     90  74  59 E14       30.05F HX  99
MARATHON       MOSUNNY   90  76  63 SE12G21   30.02F HX 101
BOCA CHICA NAS PTSUNNY   91  75  59 E21       30.01F HX 101
KEY WEST INTL  MOSUNNY   90  76  63 E16       30.02F HX 101

...INTERNATIONAL WEATHER...

CITY           SKY/WX    TMP DP  RH WIND       PRES   REMARKS
NASSAU BAHAMAS MOSUNNY   90  73  58 SE12      30.06F HX  98
CANCUN MEXICO  PTSUNNY   90  75  62 E14       29.92F HX 100
COZUMEL MEXICO RAIN      84  77  79 E14       29.90F HX  94

ADJACENT COASTAL WATERS...

STATION/POSITION TIME  SKY/WX   TEMP    WIND        PRES    WAVE
                                AIR SEA DIR/SP/G            HT/PER
                 (UTC)          (F)     (DEG/KT/KT) (MB)    (FT/S)
PULASKI SHOAL LI 2000            87     110/ 20/ 22 1016.0F
SAND KEY         2000            86     100/ 20/ 23 1016.3F
SOMBRERO KEY     2000            87     100/ 17/ 19 1017.2F
LONG KEY         2000            86 88  110/ 15/ 18 1017.6F
MOLASSES REEF    2000            85 88  100/ 14/ 16 1017.2F
FOWEY ROCKS      2000            86 87  100/ 14/ 15 1018.1F
Buoy 42080       NOT AVBL

$$




U.S. Dept. of Commerce
NOAA National Weather Service
1325 East West Highway
Silver Spring, MD 20910
E-mail: w-nws.webmaster@noaa.gov
Page last modified: May 16, 2007
NATIONAL WEATHER SERVICE: for Safety, for Work, for Fun - FOR LIFE